Temperature
30 31 32 32 32 32 32 32 31 31 31 31 31 31 31 30 30 29 29 28 26 26 25 24 24 23 23 22 22 22 21 21 20 20 20 19 19 19 19 19 18 18 18 18
29 31 31 31 31 32 32 32 32 32 31 31 31 31 30 29 29 28 28 27 26 25 24 23 23 23 22 22 21 21 21 21 20 20 19 19 19 19 19 19 18 18 18 18
28 30 30 29 31 32 32 32 32 31 31 31 31 30 29 29 28 28 27 26 25 24 23 22 22 22 22 21 21 20 20 20 20 20 19 19 19 19 19 18 18 18 18 18
28 28 27 29 32 32 31 31 32 31 31 31 30 30 29 28 27 26 26 25 24 24 23 22 22 21 21 21 21 20 20 20 20 19 19 19 19 18 18 18 18 18 18 17
27 27 28 29 30 31 30 29 30 30 30 30 29 29 28 27 26 25 25 24 24 23 23 22 22 21 21 20 20 20 20 20 19 19 19 19 18 18 18 18 18 17 17 17
26 26 26 28 29 30 30 28 29 29 29 28 28 28 27 26 25 24 24 23 23 23 23 22 21 21 20 20 20 20 20 19 19 19 19 18 18 18 18 18 17 17 17 17
26 26 27 28 29 29 27 27 28 28 27 27 26 26 25 25 24 23 23 23 22 22 22 21 21 21 20 20 20 20 19 19 19 18 18 18 18 18 17 17 17 17 17 17
26 25 26 28 28 26 25 26 26 26 26 26 25 25 24 24 23 22 22 22 21 21 21 20 20 20 20 19 19 19 19 18 18 18 18 18 17 17 17 17 17 17 17 17
25 26 26 26 26 25 25 25 25 25 25 25 25 24 23 23 22 22 21 21 21 20 20 20 19 19 19 19 19 18 18 18 18 17 17 17 17 17 17 17 17 17 17 16
25 25 26 25 25 24 24 24 24 24 24 24 23 23 22 22 21 21 20 20 20 19 19 19 18 18 18 18 18 18 17 17 17 17 17 17 17 17 17 16 16 16 16 16
24 24 24 24 24 24 23 23 23 23 23 23 22 22 21 21 20 20 19 19 19 19 18 18 18 18 17 17 17 17 17 17 17 17 17 17 17 16 16 16 16 16 16 16
23 23 23 22 22 22 22 22 22 22 22 22 22 21 20 20 19 19 19 18 18 18 17 17 17 17 17 17 17 16 16 16 16 16 16 16 16 16 16 16 16 16 15 15
22 22 22 21 21 22 22 21 21 21 21 21 21 20 20 19 19 18 18 18 18 17 17 17 16 16 16 16 16 16 16 16 15 15 15 15 16 16 16 16 16 15 15 15
20 20 20 20 21 21 21 21 21 21 20 20 20 19 19 18 18 18 17 17 17 17 16 16 16 15 15 15 15 15 15 15 15 15 15 15 15 15 15 15 15 15 15 15
20 20 20 20 20 20 20 20 20 20 19 19 19 19 18 18 17 17 17 16 16 16 15 15 15 15 15 15 15 15 15 15 15 15 15 15 15 15 15 15 15 15 14 14
19 19 19 19 19 19 19 19 19 19 18 18 18 18 17 17 16 16 16 16 15 15 15 15 14 14 14 14 14 14 14 15 14 14 14 14 14 14 14 14 14 14 14 14
18 19 19 18 18 18 18 18 18 18 18 17 17 17 16 16 16 16 15 15 15 15 14 14 14 14 14 14 14 14 14 14 14 14 14 14 14 14 14 13 13 13 13 13
18 18 18 18 18 17 17 17 17 17 17 16 16 16 15 15 15 15 15 15 14 14 14 14 14 13 13 13 13 13 13 13 13 13 13 13 13 13 13 13 13 13 13 13
18 17 17 17 17 17 16 16 16 16 16 15 15 15 15 14 14 14 14 14 14 13 13 13 13 13 13 13 13 13 13 13 13 13 13 13 13 13 13 12 12 12 12 12
17 17 16 16 16 16 16 16 16 15 15 15 15 14 14 14 14 14 14 13 13 13 13 13 13 12 13 13 13 12 12 12 12 12 12 12 12 12 12 12 12 12 11 11
16 16 16 16 15 15 15 15 15 15 14 14 14 14 13 13 13 13 13 13 13 13 13 13 12 12 12 12 12 12 12 12 12 12 12 12 12 11 11 11 11 11 11 10
15 15 15 15 15 15 15 14 14 14 14 14 13 13 13 13 13 13 13 12 12 12 12 12 12 12 12 12 12 11 11 11 11 11 11 11 11 11 10 10 10 10 10 10
14 14 14 14 14 14 14 14 14 14 13 13 13 13 13 13 13 12 12 12 12 12 12 12 12 12 12 11 11 11 11 11 11 11 10 10 10 10 10 10 10 10 10 9
13 13 14 14 14 14 14 13 13 13 13 13 13 13 12 12 12 12 12 12 12 11 11 11 11 11 11 11 11 11 10 10 10 10 10 10 10 9 9 9 9 9 9 9
13 13 13 13 13 13 13 13 13 13 13 13 12 12 12 12 12 11 11 11 11 11 11 11 11 11 11 10 10 10 10 10 10 9 9 9 9 9 9 9 8 8 8 8
12 13 13 13 13 13 13 13 13 13 13 12 12 12 12 12 11 11 11 11 11 11 11 11 10 10 10 10 10 10 9 9 9 9 9 9 8 8 8 8 8 8 8 8
12 12 12 13 13 13 13 13 13 13 12 12 12 12 11 11 11 11 11 11 11 11 10 10 10 10 10 9 9 9 9 9 9 9 8 8 8 8 7 7 7 7 7 7
Wind_Speed
15 15 14 13 14 14 13 11 12 11 7 3 1 1 2 3 2 2 5 6 6 5 5 4 4 4 3 4 4 4 5 5 5 5 4 3 3 3 3 3 4 3 3 3
15 15 15 16 15 15 14 13 12 13 7 2 1 2 2 2 1 1 2 4 5 5 5 4 4 4 3 3 3 4 5 4 4 4 4 4 4 3 3 3 3 3 3 4
14 14 14 16 14 12 11 10 9 9 5 3 3 2 1 3 2 2 2 3 5 4 3 2 3 3 3 4 4 3 4 4 4 4 4 4 4 3 4 4 4 4 4 4
12 12 16 12 11 10 10 8 7 5 4 4 4 2 2 3 3 3 2 2 3 4 4 4 4 4 4 4 5 5 4 4 4 4 4 3 3 4 4 3 3 4 4 4
11 14 15 12 9 10 10 8 5 5 5 5 4 3 3 6 6 4 4 3 1 1 3 4 4 4 4 4 4 4 4 4 3 3 3 3 4 4 4 3 4 4 4 4
12 14 14 8 6 8 8 7 5 5 4 5 5 4 2 5 5 5 4 3 2 1 1 2 3 3 4 4 4 4 3 2 2 3 3 4 5 4 4 3 4 5 4 4
15 16 10 7 6 7 8 4 4 4 3 3 3 4 4 4 4 4 4 3 3 3 2 1 1 2 3 3 3 2 2 1 2 3 4 5 5 4 4 4 5 5 5 5
12 14 9 5 5 3 3 5 4 4 4 3 3 4 3 3 4 4 4 4 4 3 2 2 1 2 2 2 1 1 1 2 3 3 5 4 4 4 4 5 6 6 5 5
7 6 1 5 3 3 3 4 5 5 5 4 4 4 3 2 3 3 3 4 3 2 1 1 1 0 1 0 0 1 1 2 2 3 3 3 4 4 5 5 5 5 4 4
6 4 3 2 3 4 5 5 5 5 5 5 4 3 2 2 2 2 3 3 3 3 1 1 1 2 1 0 0 1 2 2 2 2 3 3 3 4 4 3 4 4 3 4
8 6 6 4 4 4 4 6 4 3 4 5 4 2 2 1 1 2 2 2 2 2 1 1 1 2 1 1 1 2 2 2 2 3 3 2 2 2 2 2 2 3 3 3
7 5 6 6 7 7 6 5 6 5 5 5 3 2 2 1 1 1 2 2 1 1 1 1 1 1 2 2 1 2 2 2 3 3 2 2 2 2 4 2 1 2 3 4
6 6 6 7 7 7 6 6 6 6 4 4 3 3 2 1 1 1 1 2 1 1 1 0 1 2 2 2 2 3 3 2 3 3 2 2 2 2 2 3 3 2 3 4
6 6 7 7 7 7 6 7 7 6 4 3 2 3 2 1 1 2 2 2 2 2 2 1 1 2 3 3 3 4 4 3 3 3 3 3 3 3 3 3 3 3 3 5
7 8 8 8 8 7 7 6 6 5 4 4 3 1 2 2 2 2 2 2 1 1 1 2 2 3 3 3 3 4 4 3 3 3 3 3 3 4 4 4 3 3 2 3
8 8 9 8 7 6 7 6 6 6 4 3 3 3 2 2 2 2 3 2 2 2 1 2 2 3 4 4 4 4 3 3 3 3 3 3 3 4 4 4 4 4 3 2
8 8 7 7 7 7 7 6 6 6 5 3 2 3 3 2 2 2 3 2 1 1 2 2 2 3 3 3 4 4 3 2 3 3 3 4 4 4 4 4 4 3 3 3
8 8 8 7 7 6 6 5 5 5 5 4 3 3 3 3 3 3 2 2 1 2 2 3 3 3 2 2 3 4 3 3 2 3 3 3 4 4 4 4 4 4 3 2
7 7 7 7 6 5 6 6 5 5 3 3 3 3 2 3 3 3 2 1 1 1 1 2 2 2 2 3 4 3 3 3 3 2 2 3 3 3 3 4 4 4 4 4
5 5 6 6 6 6 6 5 5 4 3 3 3 3 2 3 3 3 1 1 1 1 1 2 1 2 3 3 4 3 3 3 3 3 3 3 3 3 3 3 4 4 4 4
4 4 5 5 5 6 6 5 4 3 3 2 2 2 2 2 2 2 0 1 2 2 1 1 2 2 3 4 4 3 3 3 3 3 3 3 3 3 3 4 4 4 4 4
4 4 4 5 5 5 4 3 3 3 3 2 2 2 2 1 1 1 2 1 1 2 1 2 3 4 4 4 3 3 3 3 3 3 3 3 3 3 4 4 4 4 4 4
4 4 5 5 5 4 3 2 1 2 2 2 2 2 1 0 1 1 1 2 2 2 2 3 4 4 4 3 3 3 4 4 3 3 4 3 3 4 4 4 4 4 4 4
4 4 4 3 3 3 2 1 0 1 2 2 2 1 1 2 2 3 3 3 4 3 4 5 5 4 3 3 3 3 4 4 4 3 4 4 4 3 3 4 4 4 4 5
3 3 2 2 2 1 1 1 2 2 3 2 2 3 3 3 3 3 3 4 4 3 4 4 3 3 3 4 4 4 4 4 4 4 4 4 4 4 4 4 4 4 4 5
2 2 1 1 1 0 1 1 1 2 2 2 2 2 3 3 3 2 2 3 5 3 3 3 3 3 3 4 4 4 4 3 4 4 4 4 5 5 5 5 6 6 5 6
1 1 1 1 1 1 1 1 1 1 2 2 2 3 3 3 2 3 3 3 3 3 3 3 3 2 3 3 4 4 4 4 4 4 4 4 4 4 5 6 5 5 5 5
Wind_Direction
263 269 273 273 274 271 266 263 269 274 273 266 217 103 49 73 98 139 141 130 122 120 117 129 133 136 156 160 160 163 169 178 181 188 189 184 190 203 197 211 223 213 230 241
270 268 268 269 264 266 266 265 261 272 277 235 268 83 81 80 93 96 115 123 125 125 131 141 141 149 154 164 165 172 185 185 183 190 193 194 199 197 210 224 234 228 235 243
271 275 275 266 265 262 262 268 272 276 296 354 341 27 95 109 91 51 57 103 122 123 140 150 154 147 177 176 169 183 197 189 189 196 202 202 211 201 218 231 237 239 245 249
267 270 263 265 276 279 274 276 283 286 309 325 334 1 60 72 70 50 42 67 119 150 167 169 164 179 201 187 182 191 198 201 197 199 206 199 205 212 221 231 241 248 251 254
263 259 259 261 272 279 274 276 299 302 309 330 340 339 59 58 55 43 34 34 72 177 171 163 173 176 182 197 195 200 204 213 216 209 211 214 221 227 231 235 244 247 246 247
258 262 263 264 275 287 281 263 311 316 330 357 339 301 10 44 37 30 28 21 358 339 193 162 165 168 188 215 212 216 219 219 225 225 225 229 229 232 239 240 245 250 249 255
251 259 262 284 291 283 268 286 339 335 347 350 349 340 5 26 29 27 20 14 6 8 23 54 136 165 203 223 234 227 220 224 230 237 239 233 230 226 233 237 244 250 251 248
246 254 255 314 311 312 359 358 2 356 344 341 347 354 22 29 29 19 6 12 11 11 27 36 60 178 206 224 249 248 225 238 239 240 253 247 230 233 237 235 241 242 242 244
255 254 332 349 348 14 10 341 340 342 344 332 326 345 10 17 9 2 1 360 352 355 48 46 356 335 228 214 228 244 220 252 262 264 267 254 246 243 239 235 242 247 246 251
276 264 285 317 345 356 349 335 332 339 340 319 316 326 342 351 356 352 348 348 347 349 39 36 7 3 6 7 226 243 240 255 268 265 259 259 253 248 243 252 256 261 263 265
283 292 299 296 312 324 323 317 320 328 309 297 304 312 312 318 338 344 341 341 338 342 16 23 42 11 345 347 297 255 251 261 274 271 257 250 260 274 260 256 258 256 278 286
277 303 303 315 327 319 316 321 320 309 304 306 308 305 291 281 304 314 317 327 330 355 17 18 19 350 344 357 314 255 252 254 263 270 270 272 261 304 343 306 259 226 232 250
295 301 302 305 309 313 308 309 308 302 300 307 312 303 279 281 304 330 324 320 324 336 330 354 347 332 336 333 315 278 270 272 275 276 279 283 280 274 287 307 315 292 260 253
302 302 291 293 299 309 309 309 311 307 312 316 311 314 318 312 325 319 317 317 325 345 330 319 332 334 329 317 301 291 275 268 276 278 275 272 280 284 277 273 278 280 273 257
279 279 279 288 292 306 315 308 308 308 315 313 307 307 298 311 316 310 322 314 320 319 319 327 331 329 323 312 303 294 284 282 295 297 291 287 286 287 291 299 299 293 287 284
274 273 272 276 282 291 293 299 306 307 313 322 335 330 312 309 314 317 323 317 286 280 326 334 326 328 321 316 313 309 303 291 295 299 296 298 299 300 306 312 315 321 323 329
265 265 266 274 280 282 287 295 298 304 311 319 336 331 314 302 302 311 315 308 306 334 1 339 330 327 321 325 318 316 310 301 309 317 332 331 324 320 317 311 312 321 339 358
258 263 265 270 283 291 298 301 303 305 304 314 313 300 297 297 293 298 301 309 347 17 355 345 344 338 344 348 328 314 315 326 339 344 341 335 330 322 319 321 328 337 346 350
251 257 261 265 267 273 280 283 285 292 307 312 297 290 294 295 299 299 301 309 314 319 328 354 349 349 357 1 331 310 315 324 336 344 337 340 327 328 338 349 349 351 352 356
259 264 269 270 270 268 271 275 278 283 286 291 294 292 301 311 319 318 341 341 332 337 11 14 14 14 12 2 328 320 327 330 344 357 358 349 346 350 355 351 355 358 358 356
280 281 288 285 275 269 268 263 262 264 267 269 277 287 297 303 310 307 338 353 355 14 11 64 50 34 12 345 316 340 342 350 2 6 358 358 2 4 3 4 2 358 352 354
292 301 309 306 290 277 274 272 257 252 251 242 241 269 288 295 345 35 56 84 28 14 22 48 49 41 10 345 1 7 4 7 13 22 21 15 5 1 358 354 356 357 355 360
317 322 317 310 296 289 281 276 252 229 215 207 200 204 201 100 117 97 65 64 75 41 47 52 52 40 9 8 21 15 16 20 20 20 21 14 3 0 357 354 354 359 3 6
312 311 310 317 328 318 329 326 263 137 124 126 134 129 120 102 88 92 103 97 78 59 64 77 74 47 15 32 33 33 29 19 15 21 21 13 5 2 2 3 5 9 8 1
304 317 329 339 349 350 1 49 96 113 112 106 105 104 102 97 98 95 103 108 103 87 90 90 71 31 26 36 36 39 40 36 29 25 25 21 19 17 16 14 15 12 11 6
321 314 335 339 348 352 359 27 75 91 92 88 83 83 91 94 100 111 115 106 95 79 67 79 68 42 34 38 42 39 39 44 32 29 32 32 29 27 23 21 23 21 17 13
277 291 294 312 58 70 55 33 52 80 99 100 98 100 99 96 96 90 82 89 88 75 65 54 50 47 45 45 41 33 30 31 29 28 32 32 30 27 26 23 20 22 21 21
Height
1475 1469 1468 1469 1468 1466 1469 1470 1478 1475 1473 1471 1469 1471 1473 1475 1477 1479 1481 1484 1486 1488 1491 1493 1496 1498 1499 1501 1502 1504 1504 1505 1506 1506 1507 1508 1508 1508 1508 1508 1509 1508 1508 1508
1478 1470 1468 1469 1466 1466 1466 1464 1467 1467 1469 1466 1467 1470 1473 1476 1477 1479 1481 1483 1486 1488 1490 1493 1494 1496 1498 1499 1501 1502 1503 1503 1504 1505 1505 1505 1506 1506 1506 1506 1506 1506 1505 1505
1485 1473 1472 1478 1466 1463 1463 1461 1463 1470 1468 1466 1468 1470 1473 1475 1477 1480 1482 1483 1486 1488 1490 1492 1493 1494 1496 1498 1498 1500 1501 1501 1501 1502 1502 1503 1503 1504 1503 1504 1503 1502 1502 1502
1485 1485 1497 1473 1458 1458 1461 1461 1461 1462 1465 1467 1469 1471 1473 1475 1477 1479 1481 1483 1486 1487 1488 1490 1492 1493 1495 1496 1497 1497 1498 1498 1499 1499 1500 1500 1499 1500 1500 1500 1499 1499 1499 1498
1486 1487 1481 1469 1461 1460 1463 1466 1463 1464 1466 1468 1470 1472 1474 1476 1479 1481 1482 1483 1485 1487 1487 1488 1490 1492 1493 1494 1495 1495 1495 1495 1496 1496 1497 1497 1496 1496 1496 1496 1496 1495 1495 1495
1484 1489 1488 1473 1462 1461 1464 1472 1467 1467 1468 1470 1473 1475 1476 1478 1480 1481 1482 1483 1484 1485 1486 1487 1488 1489 1490 1491 1492 1492 1492 1493 1493 1493 1493 1493 1493 1493 1493 1492 1492 1492 1492 1492
1484 1484 1476 1465 1461 1462 1477 1477 1469 1469 1471 1473 1475 1477 1479 1479 1481 1482 1483 1483 1483 1483 1484 1485 1485 1486 1487 1488 1488 1489 1489 1489 1489 1489 1490 1489 1489 1489 1489 1489 1489 1488 1488 1487
1479 1483 1481 1466 1465 1470 1476 1472 1472 1473 1473 1475 1476 1477 1478 1480 1481 1482 1482 1482 1482 1482 1482 1483 1483 1484 1484 1485 1486 1486 1486 1486 1486 1486 1486 1486 1485 1485 1485 1485 1484 1484 1483 1483
1472 1474 1470 1469 1470 1472 1473 1474 1474 1474 1474 1475 1476 1477 1479 1480 1481 1481 1482 1482 1482 1482 1481 1481 1482 1482 1482 1483 1483 1483 1483 1483 1482 1482 1482 1482 1481 1481 1480 1481 1480 1480 1480 1479
1469 1468 1469 1470 1471 1472 1474 1475 1475 1475 1475 1475 1476 1477 1478 1479 1480 1481 1481 1481 1481 1481 1480 1480 1480 1480 1480 1480 1480 1480 1480 1479 1479 1478 1478 1478 1478 1477 1476 1476 1476 1476 1476 1475
1470 1470 1470 1471 1472 1473 1474 1473 1474 1475 1475 1475 1476 1477 1478 1478 1479 1479 1480 1480 1480 1479 1479 1478 1478 1478 1478 1478 1477 1477 1477 1476 1475 1475 1474 1474 1474 1473 1472 1473 1473 1473 1472 1472
1473 1473 1473 1473 1474 1474 1473 1473 1474 1474 1474 1475 1475 1476 1476 1477 1477 1477 1478 1478 1477 1477 1477 1476 1476 1476 1475 1475 1475 1474 1474 1473 1473 1473 1472 1471 1470 1470 1470 1470 1470 1469 1468 1467
1472 1473 1473 1474 1474 1473 1474 1473 1473 1474 1473 1474 1474 1474 1474 1475 1475 1475 1475 1476 1475 1475 1475 1474 1474 1474 1473 1473 1472 1472 1471 1471 1470 1470 1469 1468 1468 1467 1466 1466 1466 1465 1463 1463
1473 1473 1473 1473 1473 1473 1473 1472 1472 1472 1472 1472 1472 1472 1472 1473 1473 1473 1474 1473 1473 1473 1472 1472 1472 1471 1471 1471 1470 1470 1469 1468 1468 1467 1467 1466 1465 1465 1464 1462 1461 1460 1460 1459
1471 1472 1472 1472 1472 1472 1471 1471 1471 1471 1470 1470 1470 1470 1471 1471 1471 1472 1472 1471 1471 1471 1470 1470 1469 1469 1468 1467 1467 1467 1466 1466 1465 1465 1465 1464 1463 1463 1462 1460 1458 1457 1456 1455
1470 1470 1470 1470 1470 1470 1470 1470 1469 1469 1468 1468 1468 1469 1469 1469 1469 1469 1470 1470 1469 1468 1467 1467 1466 1466 1465 1465 1465 1464 1463 1462 1462 1462 1462 1461 1461 1461 1460 1458 1456 1455 1453 1452
1468 1468 1468 1468 1468 1469 1469 1469 1468 1468 1467 1467 1467 1468 1468 1467 1467 1467 1467 1467 1467 1466 1465 1464 1463 1463 1462 1461 1461 1461 1460 1460 1460 1460 1459 1459 1459 1458 1457 1456 1454 1453 1452 1450
1466 1466 1467 1467 1467 1467 1466 1467 1466 1466 1466 1465 1465 1465 1465 1465 1465 1465 1465 1464 1464 1463 1463 1462 1461 1460 1459 1459 1459 1458 1457 1456 1456 1457 1457 1457 1456 1455 1455 1454 1452 1451 1449 1449
1462 1463 1463 1464 1464 1464 1464 1464 1464 1464 1464 1463 1462 1462 1463 1463 1463 1463 1462 1462 1461 1460 1460 1459 1459 1458 1458 1457 1457 1456 1456 1456 1455 1455 1455 1454 1454 1453 1452 1451 1450 1449 1448 1447
1459 1460 1460 1461 1461 1461 1461 1461 1461 1460 1460 1460 1460 1460 1460 1460 1460 1460 1460 1459 1459 1458 1458 1457 1457 1457 1456 1456 1455 1455 1455 1455 1454 1453 1453 1452 1452 1451 1450 1449 1448 1448 1447 1445
1457 1456 1456 1457 1457 1457 1457 1457 1456 1456 1457 1457 1458 1458 1458 1457 1457 1457 1456 1457 1457 1456 1456 1456 1456 1455 1455 1455 1455 1454 1454 1453 1453 1452 1452 1451 1450 1449 1448 1448 1447 1446 1445 1444
1454 1454 1454 1454 1453 1453 1453 1452 1452 1453 1453 1454 1455 1455 1456 1455 1455 1455 1455 1455 1455 1455 1455 1455 1454 1454 1454 1453 1453 1453 1453 1452 1451 1451 1450 1449 1449 1448 1448 1447 1446 1445 1444 1443
1452 1452 1451 1450 1450 1450 1450 1450 1449 1449 1450 1451 1452 1453 1453 1454 1454 1454 1454 1454 1454 1454 1454 1454 1454 1453 1453 1453 1453 1452 1452 1451 1450 1450 1449 1449 1448 1448 1447 1446 1445 1444 1443 1442
1450 1449 1448 1448 1447 1447 1446 1446 1447 1447 1448 1449 1451 1452 1452 1452 1453 1453 1454 1455 1455 1454 1454 1454 1453 1453 1453 1453 1452 1452 1452 1451 1450 1450 1449 1449 1448 1447 1446 1445 1444 1443 1442 1441
1448 1447 1446 1446 1446 1447 1447 1446 1446 1446 1448 1450 1451 1451 1452 1452 1452 1453 1454 1455 1455 1455 1454 1454 1453 1453 1453 1453 1453 1452 1452 1451 1451 1450 1449 1449 1448 1447 1446 1445 1443 1442 1441 1440
1448 1447 1446 1446 1446 1446 1446 1447 1447 1448 1449 1450 1451 1451 1452 1452 1453 1453 1454 1455 1454 1454 1455 1455 1454 1454 1454 1454 1453 1453 1452 1452 1451 1450 1450 1449 1448 1447 1446 1444 1443 1441 1440 1439
1447 1447 1446 1447 1447 1447 1447 1448 1448 1449 1450 1450 1451 1452 1452 1453 1453 1454 1454 1455 1455 1455 1455 1456 1455 1455 1455 1454 1454 1453 1453 1452 1452 1451 1450 1449 1448 1447 1446 1444 1443 1441 1440 1438